• Join FlightAware (Why Join?)
  • Login
  • US Flag 
06:52AM EDT


 

Airport Tracker/Info


-or-


 

Live Flight TrackerFlight Track Log ✈ AAL1344 ✈ 13-May-2013 ✈ KAUS - KDFW

Flight Track Log - Related Links

Times and Time Zones

All times are in EDT time to prevent confusion due to time zone crossing. See the AAL1344 flight status page for this flight to view local times or setup timezone preferences in your user account.

Time Position Orientation Groundspeed Altitude Reporting Facility
EDT Latitude Longitude Course Direction KTS MPH feet Rate Location/Type
04:50PM 30.1478 -97.6858 323° Northwest 197 227 2,600  Level Houston Center
04:51PM 30.1400 -97.7467 262° West 220 253 5,300 2,460 Climbing Houston Center
04:52PM 30.2064 -97.7850 333° Northwest 265 305 7,700 2,400 Climbing Houston Center
04:53PM 30.2811 -97.8158 340° North 279 321 10,300 1,980 Climbing Houston Center
04:54PM 30.3739 -97.8453 345° North 330 380 11,800 2,580 Climbing Houston Center
04:55PM 30.5544 -97.6518 323° Northwest  Level FlightAware Approximate
04:55PM 30.4922 -97.8889 342° North 371 427 15,700  Level Houston Center
04:56PM 30.5958 -97.9192 346° North 378 435 17,800 2,160 Climbing Houston Center
04:57PM 30.7017 -97.9558 343° North 389 448 20,200 2,040 Climbing Houston Center
04:58PM 30.8097 -97.9975 342° North 399 459 22,100 1,320 Climbing Houston Center
04:59PM 30.9203 -98.0411 341° North 411 473 23,000 420 Climbing Houston Center
05:00PM 31.0328 -98.0844 342° North 417 480 23,000  Level Houston Center
05:01PM 31.1472 -98.1281 342° North 424 488 23,000  Level Houston Center
05:02PM 31.2642 -98.1350 357° North 432 497 23,000  Level Houston Center
05:03PM 31.3828 -98.0631 27° Northeast 401 461 23,000  Level Fort Worth Center
05:04PM 31.5061 -98.0078 21° North 415 478 23,000  Level Fort Worth Center
05:05PM 31.6131 -97.9500 25° Northeast 418 481 23,000  Level Fort Worth Center
05:06PM 31.7197 -97.8969 23° Northeast 418 481 23,000 -780 Level Fort Worth Center
05:07PM 31.8264 -97.8389 25° Northeast 418 481 21,500 -1,440 Descending Fort Worth Center
05:08PM 31.9289 -97.7903 22° Northeast 403 464 20,200 -1,500 Descending Fort Worth Center
05:09PM 32.0250 -97.7392 24° Northeast 385 443 18,500 -1,500 Descending Fort Worth Center
05:10PM 32.1108 -97.6931 24° Northeast 380 437 17,300 -1,800 Descending Fort Worth Center
05:11PM 32.2153 -97.6394 23° Northeast 373 429 15,000 -2,100 Descending Fort Worth Center
05:12PM 32.2989 -97.5978 23° Northeast 368 423 13,100 -1,920 Descending Fort Worth Center
05:13PM 32.3969 -97.5464 24° Northeast 350 403 11,200 -1,080 Descending Fort Worth Center
05:14PM 32.4722 -97.5019 26° Northeast 336 387 11,000 -120 Descending Fort Worth Center
05:15PM 32.5453 -97.4158 45° Northeast 329 379 11,000  Level Fort Worth Center
05:16PM 32.6036 -97.3444 46° Northeast 329 379 11,000  Level Fort Worth Center
05:17PM 32.6725 -97.2606 46° Northeast 323 372 11,000 -60 Level Fort Worth Center
05:18PM 32.7289 -97.1936 45° Northeast 323 372 10,900  Descending Fort Worth Center
05:19PM 32.8019 -97.1686 16° North 267 307 11,000 -720 Climbing Fort Worth Center
05:20PM 32.8644 -97.1686 360° North 241 277 9,500 -1,800 Descending Fort Worth Center
05:21PM 32.9394 -97.1608 North 236 272 7,400 -2,100 Descending Fort Worth Center